Weather History for KPIE - March, 2014

Change the Weather History Date:

Saturday, March 29, 2014

  Actual Average Record
Temperature  
Mean Temperature 72 °F -  
Max Temperature 78 °F 78 °F 86 °F (1976)
Min Temperature 66 °F 64 °F 42 °F (1955)
Cooling Degree Days 7    
Growing Degree Days 22 (Base 50)    
Moisture  
Dew Point 67 °F    
Average Humidity 88    
Maximum Humidity 94    
Minimum Humidity 76    
Precipitation  
Precipitation 1.37 in - - ()
Sea Level Pressure  
Sea Level Pressure 29.98 in    
Wind  
Wind Speed 9 mph (SSW)    
Max Wind Speed 26 mph    
Max Gust Speed 34 mph    
Visibility 6 miles    
Events Rain , Thunderstorm    
Averages and records for this station are not official NWS values.
T = Trace of Precipitation, MM = Missing Value Source: NWS Daily Summary

Daily Weather History Graph

Daily Weather History Graph

Search for Another Location

Airport or City:

Trip Planner

Search our weather history database for the weather conditions in past years. The results will help you decide how hot, cold, wet, or windy it might be!

Date:

Astronomy

Mar. 29, 2014 Rise Set
Actual Time 7:24 AM EDT 7:46 PM EDT
Civil Twilight 7:00 AM EDT 8:10 PM EDT
Nautical Twilight 6:33 AM EDT 8:37 PM EDT
Astronomical Twilight 6:05 AM EDT 9:05 PM EDT
Moon 6:26 AM EDT (3/29) 6:53 PM EDT (3/29)
Length of Visible Light 13h 09m
Length of Day
12h 22m
Waning Crescent, 2% of the Moon is Illuminated
Mar 29
Waning Crescent
Mar 30
New
Apr 7
First Quarter
Apr 15
Full
Apr 22
Last Quarter

Hourly Weather History & Observations

Time (EDT) Temp. Dew Point Humidity Pressure Visibility Wind Dir Wind Speed Gust Speed Precip Events Conditions
12:50 AM 69.8 °F 66.2 °F 88% 30.04 in 2.0 mi SE 4.6 mph - 0.14 in Rain Rain
12:53 AM 70.0 °F 66.9 °F 90% 30.04 in 2.5 mi SE 6.9 mph - 0.14 in Rain Light Rain
1:01 AM 69.1 °F 66.9 °F 93% 30.04 in 5.0 mi SSE 4.6 mph - 0.01 in Rain Light Rain
1:53 AM 70.0 °F 66.9 °F 90% 30.04 in 5.0 mi WNW 3.5 mph - 0.07 in Rain Light Rain
2:01 AM 70.0 °F 66.9 °F 90% 30.04 in 6.0 mi Calm Calm - 0.00 in   Overcast
2:53 AM 69.1 °F 66.0 °F 90% 30.01 in 4.0 mi Calm Calm - 0.01 in   Overcast
3:53 AM 68.0 °F 66.0 °F 93% 30.00 in 5.0 mi ENE 3.5 mph - N/A   Overcast
4:27 AM 68.0 °F 66.0 °F 93% 29.99 in 5.0 mi ENE 5.8 mph - N/A   Overcast
4:53 AM 69.1 °F 66.0 °F 90% 29.99 in 6.0 mi East 4.6 mph - N/A   Overcast
5:39 AM 69.1 °F 66.0 °F 90% 29.99 in 6.0 mi East 3.5 mph - N/A   Overcast
5:53 AM 69.1 °F 66.0 °F 90% 30.00 in 6.0 mi Calm Calm - N/A   Overcast
6:53 AM 70.0 °F 66.9 °F 90% 29.97 in 8.0 mi SSE 11.5 mph - N/A   Overcast
7:53 AM 71.1 °F 68.0 °F 90% 29.98 in 6.0 mi South 10.4 mph - N/A   Overcast
8:53 AM 73.0 °F 70.0 °F 90% 29.97 in 8.0 mi South 17.3 mph 20.7 mph N/A   Mostly Cloudy
9:41 AM 75.9 °F 71.1 °F 85% 29.98 in 9.0 mi South 17.3 mph - N/A   Partly Cloudy
9:53 AM 75.9 °F 71.1 °F 85% 29.98 in 10.0 mi South 21.9 mph 27.6 mph N/A   Mostly Cloudy
10:53 AM 78.1 °F 71.1 °F 79% 29.97 in 9.0 mi South 26.5 mph 34.5 mph N/A   Mostly Cloudy
11:53 AM 75.0 °F 71.1 °F 87% 29.96 in 7.0 mi South 21.9 mph 32.2 mph N/A   Overcast
12:49 PM 73.4 °F 71.6 °F 94% 29.98 in 5.0 mi SSW 20.7 mph - 0.00 in Rain , Thunderstorm Light Rain
12:53 PM 73.9 °F 71.1 °F 91% 29.98 in 5.0 mi SSW 19.6 mph 26.5 mph 0.01 in Rain , Thunderstorm Light Rain
1:04 PM 73.9 °F 71.1 °F 91% 29.99 in 4.0 mi SW 13.8 mph 21.9 mph 0.02 in Rain , Thunderstorm Light Thunderstorms and Rain
1:21 PM 73.0 °F 71.1 °F 93% 29.98 in 0.8 mi SW 13.8 mph - 0.19 in Rain , Thunderstorm Heavy Thunderstorms and Rain
1:49 PM 73.4 °F 69.8 °F 88% 29.98 in 3.0 mi SW 15.0 mph - 0.37 in Rain , Thunderstorm Light Thunderstorms and Rain
1:53 PM 73.0 °F 70.0 °F 90% 29.99 in 0.5 mi NW 26.5 mph 33.4 mph 0.37 in Rain , Thunderstorm Light Thunderstorms and Rain
2:07 PM 66.9 °F 64.9 °F 93% 30.01 in 1.0 mi NW 13.8 mph 33.4 mph 0.27 in Rain , Thunderstorm Heavy Thunderstorms and Rain
2:29 PM 66.9 °F 64.9 °F 93% 30.01 in 2.0 mi West 8.1 mph - 0.62 in Rain , Thunderstorm Thunderstorms and Rain
2:46 PM 66.9 °F 64.9 °F 93% 30.00 in 2.0 mi SW 6.9 mph - 0.66 in Rain , Thunderstorm Light Rain
2:53 PM 66.9 °F 64.9 °F 93% 29.99 in 6.0 mi WSW 5.8 mph - 0.66 in Rain Light Rain
3:53 PM 68.0 °F 64.9 °F 90% 29.91 in 7.0 mi South 18.4 mph - 0.09 in Rain Light Rain
4:53 PM 70.0 °F 64.9 °F 84% 29.92 in 10.0 mi SSW 19.6 mph 27.6 mph 0.02 in   Scattered Clouds
5:53 PM 72.0 °F 64.0 °F 76% 29.91 in 10.0 mi SSW 21.9 mph 28.8 mph N/A   Clear
6:53 PM 71.1 °F 64.0 °F 78% 29.91 in 10.0 mi SSW 13.8 mph - N/A   Overcast
7:53 PM 70.0 °F 62.1 °F 76% 29.93 in 10.0 mi SSW 13.8 mph - N/A   Mostly Cloudy
8:53 PM 70.0 °F 64.0 °F 81% 29.95 in 10.0 mi SW 11.5 mph - N/A   Overcast
9:53 PM 69.1 °F 64.0 °F 84% 29.97 in 10.0 mi West 12.7 mph - N/A   Overcast
10:53 PM 68.0 °F 63.0 °F 84% 29.98 in 10.0 mi WNW 10.4 mph - N/A   Scattered Clouds
11:53 PM 66.0 °F 60.1 °F 81% 29.98 in 10.0 mi WNW 15.0 mph - N/A   Clear